Weather History for Bentonville, AR

Change the Weather History Date:

Thursday, January 3, 2013

  Actual Average Record
Temperature  
Mean Temperature 30 °F -  
Max Temperature 42 °F 43 °F 73 °F (2009)
Min Temperature 19 °F 23 °F -2 °F (1979)
Degree Days  
Heating Degree Days 34    
Moisture  
Dew Point 22 °F    
Average Humidity 73    
Maximum Humidity 93    
Minimum Humidity 45    
Precipitation  
Precipitation 0.00 in - - ()
Sea Level Pressure  
Sea Level Pressure 30.34 in    
Wind  
Wind Speed 2 mph (NW)    
Max Wind Speed 7 mph    
Max Gust Speed -    
Visibility 8 miles    
Events      
Averages and records for this station are not official NWS values.
T = Trace of Precipitation, MM = Missing Value Source: NWS Daily Summary

Daily Weather History Graph

Daily Weather History Graph

Search for Another Location

Airport:

Trip Planner

Search our weather history database for the weather conditions in past years. The results will help you decide how hot, cold, wet, or windy it might be!

Date:

Astronomy

Jan. 03, 2013 Rise Set
Actual Time 7:28 AM CST 5:14 PM CST
Civil Twilight 7:00 AM CST 5:43 PM CST
Nautical Twilight 6:28 AM CST 6:15 PM CST
Astronomical Twilight 5:56 AM CST 6:46 PM CST
Moon 11:38 PM CST (1/3) 10:52 AM CST (1/3)
Length of Visible Light 10h 42m
Length of Day
9h 45m
Waning Gibbous, 65% of the Moon is Illuminated
Jan 3
Waning Gibbous
Jan 4
Last Quarter
Jan 11
New
Jan 18
First Quarter
Jan 26
Full

Hourly Weather History & Observations

Time (CST) Temp. Windchill Dew Point Humidity Pressure Visibility Wind Dir Wind Speed Gust Speed Precip Events Conditions
12:35 AM 24.8 °F 17.9 °F 19.4 °F 80% 30.24 in 7.0 mi SSW 5.8 mph - N/A   Clear
12:55 AM 21.2 °F 16.4 °F 17.6 °F 86% 30.23 in 7.0 mi SW 3.5 mph - N/A   Clear
1:15 AM 23.0 °F 18.4 °F 19.4 °F 86% 30.23 in 7.0 mi SSW 3.5 mph - N/A   Clear
1:35 AM 21.2 °F - 19.4 °F 93% 30.24 in 6.0 mi Calm Calm - N/A   Clear
2:15 AM 21.2 °F 16.4 °F 17.6 °F 86% 30.25 in 6.0 mi SW 3.5 mph - N/A   Clear
2:35 AM 21.2 °F - 17.6 °F 86% 30.27 in 5.0 mi Calm Calm - N/A   Clear
2:55 AM 21.2 °F - 19.4 °F 93% 30.27 in 5.0 mi Calm Calm - N/A   Clear
3:15 AM 21.2 °F - 17.6 °F 86% 30.28 in 5.0 mi Calm Calm - N/A   Clear
3:35 AM 21.2 °F - 19.4 °F 93% 30.28 in 5.0 mi Calm Calm - N/A   Clear
4:15 AM 21.2 °F - 17.6 °F 86% 30.29 in 4.0 mi Calm Calm - N/A   Clear
4:35 AM 19.4 °F - 17.6 °F 93% 30.29 in 5.0 mi Calm Calm - N/A   Clear
4:55 AM 19.4 °F - 17.6 °F 93% 30.30 in 3.0 mi Calm Calm - N/A   Clear
5:35 AM 21.2 °F - 17.6 °F 86% 30.31 in 5.0 mi Calm Calm - N/A   Mostly Cloudy
5:55 AM 21.2 °F - 19.4 °F 93% 30.32 in 5.0 mi Calm Calm - N/A   Overcast
6:15 AM 23.0 °F - 19.4 °F 86% 30.32 in 5.0 mi Calm Calm - N/A   Overcast
6:35 AM 21.2 °F - 19.4 °F 93% 30.32 in 5.0 mi Calm Calm - N/A   Scattered Clouds
6:55 AM 21.2 °F 14.9 °F 17.6 °F 86% 30.33 in 5.0 mi NW 4.6 mph - N/A   Clear
7:35 AM 21.2 °F - 17.6 °F 86% 30.33 in 3.0 mi Calm Calm - N/A   Clear
7:55 AM 21.2 °F - 17.6 °F 86% 30.34 in 3.0 mi Calm Calm - N/A   Clear
8:35 AM 24.8 °F - 21.2 °F 86% 30.36 in 4.0 mi Calm Calm - N/A   Clear
8:55 AM 26.6 °F - 23.0 °F 86% 30.36 in 5.0 mi Calm Calm - N/A   Clear
9:35 AM 30.2 °F 26.7 °F 26.6 °F 86% 30.38 in 8.0 mi NW 3.5 mph - N/A   Clear
9:55 AM 30.2 °F 26.7 °F 26.6 °F 86% 30.40 in 10.0 mi NW 3.5 mph - N/A   Clear
10:15 AM 32.0 °F - 26.6 °F 80% 30.41 in 10.0 mi Calm Calm - N/A   Clear
10:35 AM 33.8 °F - 26.6 °F 75% 30.41 in 10.0 mi Calm Calm - N/A   Clear
11:15 AM 37.4 °F - 28.4 °F 70% 30.40 in 10.0 mi Calm Calm - N/A   Clear
11:35 AM 37.4 °F - 26.6 °F 65% 30.40 in 10.0 mi Calm Calm - N/A   Clear
11:55 AM 37.4 °F 32.8 °F 26.6 °F 65% 30.39 in 10.0 mi West 5.8 mph - N/A   Clear
12:15 PM 37.4 °F - 24.8 °F 60% 30.37 in 10.0 mi Calm Calm - N/A   Scattered Clouds
12:35 PM 39.2 °F 35.9 °F 24.8 °F 56% 30.37 in 10.0 mi NNW 4.6 mph - N/A   Partly Cloudy
1:15 PM 39.2 °F 34.2 °F 24.8 °F 56% 30.35 in 10.0 mi WNW 6.9 mph - N/A   Partly Cloudy
1:55 PM 41.0 °F 37.1 °F 24.8 °F 53% 30.34 in 10.0 mi NNW 5.8 mph - N/A   Clear
2:15 PM 41.0 °F 37.1 °F 21.2 °F 45% 30.34 in 10.0 mi NNW 5.8 mph - N/A   Clear
2:35 PM 41.0 °F 36.4 °F 23.0 °F 49% 30.34 in 10.0 mi NW 6.9 mph - N/A   Clear
2:55 PM 41.0 °F 38.0 °F 23.0 °F 49% 30.34 in 10.0 mi WNW 4.6 mph - N/A   Clear
3:15 PM 42.8 °F 39.3 °F 23.0 °F 46% 30.34 in 10.0 mi WNW 5.8 mph - N/A   Clear
3:35 PM 42.8 °F 40.1 °F 23.0 °F 46% 30.35 in 10.0 mi NNW 4.6 mph - N/A   Clear
3:55 PM 41.0 °F 39.0 °F 21.2 °F 45% 30.35 in 10.0 mi West 3.5 mph - N/A   Clear
4:15 PM 41.0 °F 38.0 °F 23.0 °F 49% 30.35 in 10.0 mi NW 4.6 mph - N/A   Clear
4:35 PM 39.2 °F 37.0 °F 21.2 °F 49% 30.35 in 10.0 mi NNW 3.5 mph - N/A   Clear
5:15 PM 37.4 °F 33.8 °F 21.2 °F 52% 30.36 in 8.0 mi WNW 4.6 mph - N/A   Clear
5:35 PM 37.4 °F 32.8 °F 21.2 °F 52% 30.37 in 10.0 mi West 5.8 mph - N/A   Clear
6:15 PM 35.6 °F 31.7 °F 23.0 °F 60% 30.36 in 10.0 mi NW 4.6 mph - N/A   Clear
6:55 PM 33.8 °F 29.6 °F 23.0 °F 65% 30.38 in 10.0 mi NW 4.6 mph - N/A   Clear
7:15 PM 33.8 °F 30.8 °F 21.2 °F 60% 30.38 in 10.0 mi NW 3.5 mph - N/A   Clear
7:35 PM 30.2 °F - 21.2 °F 69% 30.38 in 10.0 mi Calm Calm - N/A   Clear
7:55 PM 30.2 °F - 21.2 °F 69% 30.38 in 10.0 mi Calm Calm - N/A   Clear
8:15 PM 28.4 °F - 21.2 °F 74% 30.38 in 10.0 mi Calm Calm - N/A   Clear
8:35 PM 28.4 °F - 19.4 °F 69% 30.38 in 10.0 mi Calm Calm - N/A   Clear
8:55 PM 26.6 °F - 21.2 °F 80% 30.38 in 10.0 mi Calm Calm - N/A   Partly Cloudy
9:15 PM 28.4 °F - 21.2 °F 74% 30.38 in 10.0 mi Calm Calm - N/A   Mostly Cloudy
9:35 PM 30.2 °F - 23.0 °F 75% 30.38 in 10.0 mi Calm Calm - N/A   Overcast
9:55 PM 30.2 °F - 23.0 °F 75% 30.38 in 10.0 mi Calm Calm - N/A   Overcast
10:35 PM 30.2 °F 26.7 °F 24.8 °F 80% 30.39 in 10.0 mi NNW 3.5 mph - N/A   Overcast
10:55 PM 32.0 °F 27.5 °F 24.8 °F 75% 30.39 in 10.0 mi NNW 4.6 mph - N/A   Overcast
11:15 PM 32.0 °F - 24.8 °F 75% 30.39 in 10.0 mi Calm Calm - N/A   Overcast
11:35 PM 32.0 °F 28.7 °F 24.8 °F 75% 30.39 in 10.0 mi NNW 3.5 mph - N/A   Overcast
11:55 PM 32.0 °F - 24.8 °F 75% 30.39 in 10.0 mi Calm Calm - N/A   Overcast